Probability
0 0 0 0 0 0 0 0 1 1 0 0 0 0 0 0 0 0 1 2 4 4 4 5 6 6 6 6 6 4 3 4 5 6 3 1 0 0 0 0 0 0 0 0 0 0 0 0 0
0 0 0 0 0 0 0 1 2 1 0 0 0 0 0 0 0 1 1 2 4 5 5 5 6 6 6 6 6 4 3 3 4 4 2 0 0 0 0 0 0 0 0 0 0 0 0 0 0
0 0 0 0 0 0 0 1 2 1 0 0 0 0 0 0 1 2 2 3 5 6 6 6 6 6 6 6 6 4 3 3 4 3 1 0 0 0 0 0 0 0 0 0 0 0 0 0 0
1 1 0 0 0 0 0 1 1 0 0 0 0 0 0 1 2 3 3 4 5 6 6 6 6 6 6 6 6 5 4 4 5 4 1 0 0 0 0 0 0 0 0 0 0 0 0 0 0
2 2 1 0 0 0 0 0 0 0 0 0 0 0 0 1 2 3 3 4 6 6 6 6 6 6 6 6 6 6 5 5 6 5 2 0 0 0 0 0 0 0 0 0 0 0 0 0 0
3 3 2 0 0 0 0 0 0 0 0 0 0 0 0 1 2 2 3 5 6 6 6 6 6 6 6 6 6 5 4 4 5 5 2 0 0 0 0 0 0 0 0 0 0 1 1 1 0
1 2 1 1 0 0 0 0 0 0 0 0 0 0 0 0 1 1 2 4 6 6 6 6 6 6 6 6 5 4 3 3 4 3 2 0 0 0 0 0 0 0 0 0 0 1 1 1 0
0 0 1 1 0 0 1 0 0 0 0 0 0 0 0 0 0 0 0 2 4 6 6 6 6 6 6 6 4 3 3 2 2 1 0 0 0 0 0 0 0 0 0 0 0 0 0 0 0
0 0 0 0 0 0 0 0 0 0 0 0 0 0 0 0 0 0 0 1 2 3 5 6 6 6 6 6 4 3 2 1 1 0 0 0 0 0 0 0 0 0 0 0 0 0 0 0 0
1 1 1 0 0 0 0 0 0 0 0 0 0 0 0 0 0 0 1 2 2 1 2 5 6 6 6 6 4 3 2 1 0 0 0 0 0 0 0 0 0 0 0 0 0 0 0 0 0
2 2 1 0 0 0 0 0 0 0 0 0 0 0 0 0 0 0 1 1 1 0 1 3 5 6 6 6 4 3 3 1 0 0 0 0 0 0 0 0 0 0 0 0 0 0 0 0 0
1 1 0 0 0 0 0 0 0 0 0 0 0 0 0 0 0 0 0 0 0 0 0 1 3 5 6 6 5 4 3 2 1 0 0 0 0 0 0 0 0 0 0 0 0 0 0 0 0
0 0 0 0 0 0 0 0 0 0 0 0 0 0 0 0 0 0 0 0 0 0 0 0 1 2 4 5 5 4 3 3 1 0 0 0 0 0 0 0 0 0 0 0 0 0 0 0 0
0 0 0 0 0 0 0 0 0 0 0 0 0 0 0 0 0 0 0 0 0 0 0 0 0 0 2 3 4 3 3 3 2 0 0 0 0 0 0 0 0 0 0 0 0 0 0 0 0
0 0 0 0 0 0 0 0 0 0 0 0 0 0 0 0 0 0 0 0 0 0 0 0 0 0 0 1 2 3 3 3 2 0 0 0 0 0 0 0 0 0 0 0 0 0 0 0 0
0 0 0 0 0 0 0 0 0 0 0 0 0 0 0 0 0 0 0 0 0 0 0 0 0 0 0 0 1 2 3 3 2 1 0 0 0 0 0 0 0 0 0 0 0 0 0 0 0
0 0 0 0 0 0 0 0 0 0 0 0 0 0 0 0 0 0 0 0 0 0 0 0 0 0 0 0 0 1 1 2 2 1 0 0 0 0 0 0 0 0 0 0 0 0 0 0 0
0 0 0 0 0 0 0 0 0 0 0 0 0 0 0 0 0 0 0 0 0 0 0 0 0 0 0 0 0 0 0 1 2 2 1 0 0 0 0 0 0 0 0 0 0 0 0 0 0
0 0 0 0 0 0 0 0 0 0 0 0 0 0 0 0 0 0 0 0 0 0 0 0 0 0 0 0 0 0 0 1 2 3 2 1 0 0 0 0 0 0 0 0 0 0 0 0 0
0 0 0 0 0 0 0 0 0 0 0 0 0 0 0 0 0 0 0 0 0 0 0 0 0 0 0 0 0 0 0 1 2 3 2 1 0 0 0 0 0 0 0 0 0 0 0 0 0
0 0 0 0 0 0 0 0 0 0 0 0 0 0 0 0 0 0 0 0 0 0 0 0 0 0 0 0 0 0 0 0 1 2 2 1 1 0 0 0 0 0 0 0 0 0 0 0 0
0 0 0 0 0 0 0 0 0 0 0 0 0 0 0 0 0 0 0 0 0 0 0 0 0 0 0 0 0 0 0 0 0 1 2 2 2 1 1 1 0 0 0 0 0 0 0 0 0
0 0 0 0 0 0 0 0 0 0 0 0 0 0 0 0 0 0 0 0 0 0 0 0 0 0 0 0 0 0 0 0 0 0 1 2 2 2 2 2 1 0 0 0 0 0 0 0 0
0 0 0 0 0 0 0 0 0 0 0 0 0 0 0 0 0 0 0 0 0 0 0 0 0 0 0 0 0 0 0 0 0 0 0 1 1 1 2 3 2 1 0 0 0 0 0 0 0
0 0 0 0 0 0 0 0 0 0 0 0 0 0 0 0 0 0 0 0 0 0 0 0 0 0 0 0 0 0 0 0 0 0 0 0 0 1 1 2 2 1 0 0 0 0 0 0 0
0 0 0 0 0 0 0 0 0 0 0 0 0 0 0 0 0 0 0 0 0 0 0 0 0 0 0 0 0 0 0 0 0 0 1 0 1 1 1 1 1 1 0 0 0 0 0 0 0
0 0 0 0 0 0 0 0 0 0 0 0 0 0 0 0 0 0 0 0 0 0 0 0 0 0 0 0 0 0 0 0 0 0 0 0 1 1 1 0 0 0 0 0 0 0 0 0 0
0 0 0 0 0 0 0 0 0 0 0 0 0 0 0 0 0 0 0 0 0 0 0 0 0 0 0 0 0 0 0 0 0 0 0 0 0 0 0 0 0 0 0 0 0 0 0 0 0
0 0 0 0 0 0 0 0 0 0 0 0 0 0 0 0 0 0 0 0 0 0 0 0 0 0 0 0 0 0 0 0 0 0 0 0 0 0 0 0 0 0 0 0 0 0 0 0 0
0 0 0 0 0 0 0 0 0 0 0 0 0 0 0 0 0 0 0 0 0 0 0 0 0 0 0 0 0 0 0 0 0 0 0 0 0 0 0 0 0 0 0 0 0 0 0 0 0
Wind_Speed
10 8 5 2 3 4 7 6 3 0 1 3 4 3 3 5 4 5 3 4 7 9 10 8 8 9 9 9 9 9 9 9 9 8 8 8 8 8 8 8 9 9 10 10 11 11 11 12 11
7 6 3 3 4 6 6 5 3 2 5 3 2 1 1 5 6 7 3 4 6 9 9 8 8 9 9 9 9 8 8 9 9 9 8 8 8 8 8 8 8 9 9 9 10 11 11 11 10
7 5 2 3 4 6 4 1 3 6 5 2 1 2 3 4 5 5 4 4 6 8 8 9 9 9 9 9 8 8 8 8 8 8 8 8 8 8 7 7 8 8 8 8 9 10 10 10 10
3 2 3 4 7 6 4 2 4 3 3 1 1 2 4 5 4 5 5 4 6 7 8 9 9 9 9 8 8 7 7 7 8 8 8 8 8 8 7 7 7 7 7 8 8 9 9 9 9
3 2 4 6 8 6 2 2 1 0 2 2 0 2 4 4 6 7 4 4 5 6 7 9 8 8 8 8 8 7 7 7 8 8 8 8 8 7 7 7 7 7 7 7 8 8 8 8 8
2 3 4 7 8 6 2 0 1 1 0 2 0 0 4 5 6 5 4 3 4 6 6 8 8 7 7 7 7 7 7 7 7 7 7 7 7 7 6 6 6 7 7 7 7 7 8 8 7
3 3 6 7 6 4 2 1 1 2 1 1 1 0 4 5 5 4 4 4 4 5 5 5 6 6 6 7 7 7 6 6 6 6 7 7 7 6 6 6 5 6 6 6 6 7 7 7 7
2 3 5 6 6 3 1 1 0 3 2 2 2 0 3 4 4 4 4 4 4 4 4 4 4 4 4 4 6 6 6 6 5 6 6 6 6 6 5 5 5 6 6 6 6 6 6 6 6
2 3 5 4 3 1 1 0 1 1 1 1 2 2 4 6 5 4 3 3 3 3 2 3 4 4 4 4 5 5 5 5 5 4 5 4 3 3 3 4 5 5 5 6 5 5 5 5 4
2 4 3 3 3 2 2 2 1 2 3 2 2 3 5 5 5 4 5 4 4 3 2 2 3 3 3 3 3 2 3 3 3 2 3 2 2 2 3 5 5 5 5 5 4 4 3 2 1
2 3 3 3 4 4 3 4 3 4 4 3 2 4 4 4 4 4 5 4 4 4 3 2 3 3 3 2 2 2 1 2 2 2 2 2 2 2 2 2 2 2 3 2 2 2 1 1 1
3 3 3 3 3 4 4 4 4 4 4 3 2 2 5 5 5 5 4 4 4 3 3 2 2 3 3 2 2 2 2 1 2 2 2 2 1 2 2 1 2 1 1 1 1 1 1 1 1
5 4 3 3 2 3 5 6 5 6 5 3 1 2 4 4 4 4 4 3 4 4 3 3 2 3 3 3 2 2 2 2 2 2 2 2 2 2 1 1 1 1 1 1 1 1 1 1 1
1 3 4 4 4 3 5 7 5 6 4 4 3 4 4 5 5 4 4 3 4 4 4 3 3 3 3 3 2 2 2 2 2 2 2 2 1 2 2 1 1 1 1 1 1 2 1 1 1
2 3 5 5 4 2 4 7 7 7 5 6 5 5 5 5 5 5 5 5 4 4 4 4 4 4 3 3 3 2 2 2 2 2 2 2 1 2 2 2 1 1 1 1 1 2 1 1 1
5 4 4 3 4 2 2 8 4 3 4 5 5 5 4 4 5 4 4 4 4 4 4 4 4 4 4 3 2 2 2 2 2 2 2 2 2 2 2 2 1 1 1 1 1 1 2 1 1
5 4 5 3 4 3 5 7 3 2 3 5 5 4 4 4 4 4 4 4 4 4 4 4 4 5 4 3 2 2 2 2 1 2 2 2 2 2 2 2 1 2 1 1 1 1 1 1 1
3 4 4 3 2 3 6 8 7 5 6 7 6 5 4 4 5 4 4 4 4 4 4 4 4 4 4 3 2 2 2 2 1 1 2 2 2 2 2 2 2 2 2 1 1 2 1 1 1
6 6 7 5 1 3 8 10 9 6 7 8 7 6 6 5 4 4 4 4 4 4 4 4 4 4 4 3 3 3 3 2 2 2 2 2 2 2 2 2 3 2 2 2 2 2 2 1 1
6 7 7 5 1 3 7 12 10 9 9 8 8 6 5 4 3 3 4 4 4 4 4 4 5 5 4 3 3 3 3 2 3 2 3 3 3 3 2 3 3 3 2 3 3 2 2 1 1
6 6 5 5 5 5 7 9 8 6 6 5 5 4 3 3 3 3 4 4 4 4 4 4 4 4 4 3 3 2 2 2 2 3 3 3 3 4 3 3 3 3 3 3 3 3 3 2 1
5 2 4 5 4 4 2 6 5 4 5 5 5 3 3 2 2 2 3 3 4 4 3 3 3 3 4 4 4 5 5 4 4 3 3 3 4 4 4 4 4 4 3 3 3 3 2 3 2
2 2 3 4 4 5 4 6 7 3 5 5 4 3 3 3 3 2 3 2 2 3 3 3 3 3 3 3 4 5 4 3 2 2 3 4 4 4 4 4 4 4 3 3 3 3 3 3 3
1 2 3 3 2 5 6 6 7 3 4 3 3 4 3 3 2 2 2 2 2 2 2 2 3 3 3 3 4 4 4 4 3 3 3 3 3 3 4 4 4 4 4 4 4 4 4 3 3
2 1 1 2 3 6 3 5 8 2 1 2 2 2 3 4 3 2 2 2 2 2 2 2 2 2 3 4 4 4 4 4 4 4 4 4 3 3 5 4 4 4 4 4 4 4 4 4 4
4 3 3 3 4 3 1 7 6 1 2 2 2 2 2 2 2 2 2 2 2 2 2 2 2 2 2 3 4 4 4 3 3 4 4 4 4 4 4 5 4 5 5 5 4 4 4 4 4
3 4 2 1 1 3 6 5 3 1 2 2 2 2 2 2 2 2 2 2 1 2 2 2 2 2 2 2 3 3 3 3 3 3 3 3 3 3 4 4 4 4 5 5 5 4 4 4 4
1 1 2 3 3 5 6 5 4 2 2 2 2 1 1 2 2 2 2 2 1 1 1 1 1 2 1 1 1 2 2 3 2 2 3 3 3 3 4 4 4 4 4 4 4 4 4 4 4
4 3 3 3 3 3 4 5 1 3 3 3 3 2 2 2 2 2 2 2 2 1 1 1 0 1 1 1 1 1 1 2 2 2 3 2 3 3 4 4 4 4 4 4 4 4 4 5 5
3 5 6 4 5 4 4 7 1 1 2 2 2 1 1 1 2 2 2 2 1 1 1 1 0 0 1 1 1 1 1 1 2 2 2 2 3 3 4 4 4 5 5 4 5 5 5 5 5
Wind_Direction
301 282 270 267 242 232 237 239 247 82 80 50 33 2 5 26 32 96 129 99 106 119 127 132 122 121 117 112 107 103 103 101 98 97 97 98 95 91 89 88 86 85 84 83 82 82 79 76 73
298 295 275 244 238 237 234 225 220 76 75 71 49 338 8 78 78 100 109 94 112 121 128 131 122 123 120 116 111 107 103 102 99 95 95 98 96 93 91 93 90 87 87 88 85 83 81 79 76
277 275 258 235 234 244 254 68 84 87 87 109 120 360 16 63 85 96 104 121 119 120 123 125 122 123 122 120 116 112 106 103 100 97 94 96 95 92 91 91 92 89 89 90 86 84 82 79 76
282 243 245 246 246 252 277 46 79 112 107 64 87 115 83 48 57 89 113 125 121 118 119 124 124 126 124 123 122 118 112 105 104 100 94 91 93 94 94 93 94 92 89 88 87 85 83 80 78
249 238 229 238 244 254 288 35 57 220 146 132 116 94 96 77 82 101 116 119 123 119 118 127 124 126 127 125 124 119 114 109 106 104 99 94 92 95 97 96 99 99 94 89 87 87 84 82 79
252 238 233 236 239 232 215 281 275 261 225 103 25 130 97 105 101 106 114 116 119 117 117 127 126 125 126 126 123 118 113 111 107 105 103 98 93 90 92 97 100 103 100 94 92 89 84 80 75
259 260 253 258 258 250 224 186 280 269 252 122 3 104 119 106 97 107 106 111 107 108 116 129 138 133 126 125 123 118 116 113 108 105 102 98 94 89 83 84 97 104 103 99 98 96 90 85 75
289 277 255 253 255 260 285 163 161 322 316 29 23 352 121 111 100 110 111 106 103 103 116 129 135 135 133 129 125 123 120 115 109 103 99 98 100 94 86 82 94 99 99 97 101 103 98 92 78
273 249 255 266 275 297 8 268 134 4 305 14 63 45 85 115 118 124 128 121 114 108 108 126 133 131 132 138 133 128 121 118 116 109 106 106 109 110 102 93 99 104 101 98 101 109 109 105 90
231 241 255 303 322 332 346 330 316 213 220 218 161 107 119 137 149 157 162 158 153 145 130 117 123 124 126 133 128 136 135 133 129 120 127 122 109 104 101 100 103 109 107 105 107 118 126 119 109
230 248 283 310 347 349 332 314 311 283 258 247 216 164 151 163 169 175 179 166 161 150 136 123 128 125 119 116 126 131 131 132 130 122 125 112 98 97 91 103 103 109 120 118 119 136 154 125 104
253 263 286 308 348 329 307 297 291 274 279 324 353 153 165 183 189 191 185 167 151 141 146 144 138 134 128 125 130 132 132 132 129 130 123 120 116 114 116 118 126 127 125 121 113 123 121 110 98
237 261 274 286 294 289 289 277 278 269 277 287 303 162 177 193 201 193 177 163 153 155 153 156 153 148 148 146 148 143 140 134 130 131 130 123 125 130 125 129 130 134 127 127 128 119 104 90 95
301 277 269 269 260 258 267 267 256 260 258 248 231 216 208 202 204 199 185 178 176 170 169 168 170 165 159 158 150 149 142 136 131 126 127 127 128 136 135 135 135 140 142 137 137 132 120 106 95
254 266 263 241 235 238 269 261 233 244 239 240 233 222 221 215 210 203 193 189 186 182 175 175 176 171 166 162 158 150 149 142 142 142 145 143 137 139 137 143 141 145 134 125 116 131 132 140 128
228 238 245 207 195 170 223 260 243 220 218 236 239 227 218 216 213 207 193 185 181 179 181 179 173 174 173 167 160 147 139 136 144 147 146 149 150 148 141 144 147 143 137 138 144 152 148 149 162
215 238 243 229 175 178 222 261 261 249 238 244 246 241 231 222 209 201 188 179 173 176 179 177 167 172 171 163 154 152 152 150 157 151 146 159 163 158 142 145 143 138 136 146 160 148 151 151 157
233 245 260 252 193 235 245 259 263 249 242 244 240 237 231 229 218 197 183 177 171 169 170 169 164 166 164 159 155 160 161 166 169 153 153 163 169 164 153 152 151 148 148 161 156 152 129 147 152
287 284 281 282 266 257 259 269 269 249 243 245 241 233 227 226 206 185 178 171 168 167 172 176 172 176 174 174 176 178 185 182 178 170 170 171 169 172 168 162 159 160 167 178 173 157 152 154 132
265 273 276 288 290 276 275 272 264 249 236 234 235 229 222 218 197 182 176 168 173 174 179 184 183 184 191 193 188 181 177 185 185 182 178 174 175 186 185 172 168 171 173 178 175 156 158 185 168
254 256 275 291 307 262 276 277 240 238 224 222 224 217 206 205 202 184 180 176 174 183 188 192 191 194 196 189 173 167 172 178 185 188 188 186 185 192 190 183 173 179 180 187 184 178 175 191 218
255 285 287 291 299 280 264 289 261 237 226 215 210 207 205 191 176 166 172 178 178 186 187 186 194 198 196 188 185 185 189 196 202 195 187 181 187 195 192 188 182 181 186 189 192 190 193 176 198
256 301 279 275 269 281 245 257 274 223 234 221 201 187 178 170 174 176 171 168 169 176 181 184 190 194 197 196 194 194 199 199 189 186 185 186 191 195 194 192 188 187 189 189 190 193 197 191 190
270 270 251 246 253 261 225 224 274 226 223 197 186 175 163 151 152 146 130 127 139 146 159 173 184 188 188 193 201 201 198 196 189 193 198 195 193 195 195 194 192 191 190 189 195 198 200 200 193
211 161 295 251 224 246 205 219 252 240 109 147 164 161 153 146 149 151 136 146 161 163 162 172 181 193 190 195 203 208 206 203 203 199 203 196 195 199 201 197 197 197 196 192 192 196 201 203 200
208 198 191 232 257 286 231 236 253 180 108 100 112 118 104 123 144 147 143 145 162 170 165 164 185 209 202 195 206 213 210 208 212 209 202 197 198 199 192 196 199 199 197 195 193 198 203 204 207
198 214 252 278 295 283 254 248 258 144 108 104 111 122 148 147 146 136 129 132 149 164 169 176 191 215 225 210 202 207 208 209 211 208 200 196 193 187 188 194 194 197 197 196 192 200 206 204 207
262 202 148 194 236 261 267 248 247 201 197 160 150 164 151 130 123 121 120 119 117 134 149 168 192 206 219 211 212 224 222 215 207 202 208 203 193 184 186 194 198 200 200 199 196 198 205 204 208
182 200 202 214 228 232 269 263 223 169 174 174 179 171 156 148 144 134 123 121 122 115 130 148 198 211 221 214 217 236 242 228 207 209 219 214 203 194 192 194 200 204 207 206 203 207 206 210 211
203 207 189 197 234 233 259 268 352 76 120 130 135 126 121 117 118 117 110 101 98 102 97 121 192 233 240 216 210 227 239 241 226 225 224 217 216 208 201 196 200 204 207 208 209 213 213 213 214